Zurück zum Katalog

BREEZE-M DEB

LostHEO
NORAD 34237·DEBRIS·🇷🇺 Russia

Gestartet Feb 28, 2006 von Baikonur Cosmodrome

Loading…

Nächste Überflüge (nächste 24 Stunden)

TLE

VeraltetSource: Space-Track

Epoche: Jul 9, 2021, 08:57 UTC

1 34237U 06006BC  21190.37342799  .00001732  00000-0  12265-2 0  9999
2 34237  51.8254 244.2590 4972810 231.7239 241.6787  5.52130759255880

Verfolge BREEZE-M DEB in Echtzeit mit AllMySat

Download on the App Store